Date String (YYYY-MM-DD hh:mm:ss) UTC,Instrument flags,Ambient pressure (hPa),Sample flow (lpm),Bypass flow (lpm),Sample temperature (°C),Ambient temperature (°C),ASC tube jacket temperature (°C),LED temperature (°C),Box temperature (°C),Sample RH (%),Span deviation,Mass concentration (μg/m³),Mass concentration (μg/m³),Mass concentration (μg/m³)
DateTimeUTC,F1_M11,P_M11,Q1_M11,Q2_M11,T1_M11,T2_M11,T3_M11,T4_M11,T5_M11,U1_M11,ZSPAN_M11,X0_M11,X2_M11,X1_M11
2022-03-27 17:00:00,,0824.3,5.00,0.00,25.9,24.9,00.0,34.9,27.7,15.1,0001.7,0017.55,0007.39,0006.17
2022-03-27 17:01:00,,0824.2,5.00,0.00,25.9,24.9,00.0,34.9,27.7,15.0,0001.4,0017.43,0007.37,0006.18
2022-03-27 17:02:00,,0824.2,5.00,0.00,25.9,25.0,00.0,34.9,27.7,15.0,0000.9,0016.72,0007.34,0006.17
2022-03-27 17:03:00,,0824.1,5.01,0.00,25.9,25.0,00.0,34.9,27.7,14.9,0001.5,0016.73,0007.29,0006.14
2022-03-27 17:04:00,,0824.2,5.00,0.00,25.9,25.0,00.0,34.9,27.7,14.9,0002.2,0016.80,0007.30,0006.14
2022-03-27 17:05:00,,0824.2,5.00,0.00,25.9,24.9,00.0,34.9,27.7,15.0,0002.8,0016.73,0007.29,0006.12
2022-03-27 17:06:00,,0824.1,5.01,0.00,25.9,24.9,00.0,34.9,27.7,14.9,0003.0,0016.86,0007.24,0006.08
2022-03-27 17:07:00,,0824.1,4.99,0.00,25.9,24.9,00.0,34.9,27.7,15.0,0001.5,0015.58,0007.07,0005.99
2022-03-27 17:08:00,,0824.1,4.99,0.00,25.9,24.9,00.0,34.9,27.7,15.0,0000.0,0015.68,0007.07,0005.95
2022-03-27 17:09:00,,0824.1,5.01,0.00,25.9,25.0,00.0,34.9,27.7,15.1,0001.2,0015.94,0007.09,0005.96
2022-03-27 17:10:00,,0824.1,5.01,0.00,25.9,25.0,00.0,34.9,27.7,15.2,0003.0,0015.10,0007.17,0006.00
2022-03-27 17:11:00,,0824.1,4.98,0.00,25.9,25.0,00.0,34.9,27.7,15.3,0003.8,0014.70,0007.26,0006.05
2022-03-27 17:12:00,,0824.1,5.01,0.00,25.9,25.0,00.0,34.9,27.7,15.2,0001.2,0014.46,0007.33,0006.10
2022-03-27 17:13:00,,0824.2,5.00,0.00,25.9,25.1,00.0,34.9,27.7,15.0,0000.8,0014.70,0007.45,0006.14
2022-03-27 17:14:00,,0824.2,5.00,0.00,26.0,25.1,00.0,34.9,27.8,14.9,0003.7,0014.90,0007.56,0006.21
2022-03-27 17:15:00,,0824.2,5.01,0.00,26.0,25.1,00.0,34.9,27.8,15.1,0003.4,0014.85,0007.61,0006.26
2022-03-27 17:16:00,,0824.1,5.00,0.00,26.0,25.1,00.0,34.9,27.8,15.0,0003.2,0015.68,0007.67,0006.31
2022-03-27 17:17:00,,0824.1,5.00,0.00,26.0,25.1,00.0,34.9,27.8,15.0,0002.9,0015.88,0007.77,0006.36
2022-03-27 17:18:00,,0824.1,5.00,0.00,26.0,25.1,00.0,34.9,27.8,15.2,0002.6,0016.04,0007.87,0006.41
2022-03-27 17:19:00,,0824.1,4.99,0.00,26.0,25.1,00.0,34.9,27.8,15.2,0001.7,0016.00,0007.92,0006.47
2022-03-27 17:20:00,,0824.1,5.00,0.00,26.0,25.2,00.0,34.9,27.8,15.1,0001.3,0016.32,0007.92,0006.51
2022-03-27 17:21:00,,0824.1,5.01,0.00,26.0,25.2,00.0,34.9,27.8,15.0,0000.9,0016.56,0008.00,0006.57
2022-03-27 17:22:00,,0824.1,5.00,0.00,26.0,25.1,00.0,34.9,27.8,14.8,0000.2,0016.62,0008.13,0006.66
2022-03-27 17:23:00,,0824.1,5.00,0.00,26.0,25.1,00.0,35.0,27.8,14.9,0000.5,0016.80,0008.22,0006.72
2022-03-27 17:24:00,,0824.0,5.00,0.00,26.0,25.1,00.0,35.0,27.8,15.1,0001.0,0016.62,0008.21,0006.75
2022-03-27 17:25:00,,0824.1,4.99,0.00,26.0,25.1,00.0,35.0,27.8,14.9,0001.2,0016.64,0008.29,0006.80
2022-03-27 17:26:00,,0824.1,5.00,0.00,26.0,25.0,00.0,35.0,27.8,15.0,0001.6,0016.82,0008.34,0006.84
2022-03-27 17:27:00,,0824.0,5.00,0.00,26.0,25.0,00.0,35.0,27.8,15.0,0001.4,0016.40,0008.37,0006.87
2022-03-27 17:28:00,,0824.1,5.00,0.00,26.0,25.1,00.0,35.0,27.8,14.9,0000.8,0016.75,0008.42,0006.91
2022-03-27 17:29:00,,0824.1,5.01,0.00,26.0,25.1,00.0,35.0,27.8,15.0,0000.1,0016.77,0008.54,0006.96
2022-03-27 17:30:00,,0824.1,5.01,0.00,26.0,25.1,00.0,35.0,27.8,15.0,0000.0,0016.77,0008.57,0006.99
2022-03-27 17:31:00,,0824.0,5.00,0.00,26.0,25.1,00.0,34.9,27.8,15.3,0000.2,0016.98,0008.67,0007.02
2022-03-27 17:32:00,,0824.0,5.00,0.00,26.0,25.2,00.0,35.0,27.8,15.0,0000.1,0017.36,0008.66,0007.03
2022-03-27 17:33:00,,0824.0,4.99,0.00,26.0,25.1,00.0,35.0,27.8,14.9,0000.6,0017.94,0008.62,0007.02
2022-03-27 17:34:00,,0824.0,4.99,0.00,26.0,25.1,00.0,35.0,27.8,15.0,0000.2,0017.88,0008.62,0007.03
2022-03-27 17:35:00,,0824.1,5.01,0.00,26.0,25.1,00.0,35.0,27.8,15.0,-000.1,0018.10,0008.67,0007.07
2022-03-27 17:36:00,,0824.1,5.01,0.00,26.0,25.1,00.0,35.0,27.8,15.0,-000.2,0018.05,0008.64,0007.08
2022-03-27 17:37:00,,0824.0,4.98,0.00,26.1,25.2,00.0,35.0,27.8,15.2,-000.1,0018.50,0008.66,0007.10
2022-03-27 17:38:00,,0824.0,5.01,0.00,26.1,25.2,00.0,35.0,27.9,15.1,0000.2,0018.60,0008.65,0007.12
2022-03-27 17:39:00,,0824.0,5.00,0.00,26.1,25.3,00.0,35.0,27.9,15.4,0000.5,0018.28,0008.65,0007.13
2022-03-27 17:40:00,,0823.9,5.00,0.00,26.1,25.3,00.0,35.0,27.9,15.5,0001.4,0017.87,0008.55,0007.11
2022-03-27 17:41:00,,0823.9,4.99,0.00,26.1,25.3,00.0,35.0,27.9,15.3,0002.3,0017.68,0008.54,0007.12
2022-03-27 17:42:00,,0823.9,5.01,0.00,26.1,25.3,00.0,35.0,27.9,15.3,0002.8,0017.21,0008.57,0007.16
2022-03-27 17:43:00,,0824.0,4.99,0.00,26.2,25.4,00.0,35.0,28.0,15.5,0003.2,0016.86,0008.60,0007.16
2022-03-27 17:44:00,,0823.9,5.00,0.00,26.2,25.4,00.0,35.0,28.0,15.5,0003.2,0016.03,0008.61,0007.15
2022-03-27 17:45:00,,0823.9,5.00,0.00,26.2,25.4,00.0,35.0,28.0,15.4,0003.4,0016.10,0008.61,0007.14
2022-03-27 17:46:00,,0823.9,5.00,0.00,26.2,25.4,00.0,35.1,28.0,15.2,0003.7,0016.57,0008.66,0007.13
2022-03-27 17:47:00,,0823.9,5.01,0.00,26.2,25.4,00.0,35.1,28.0,15.2,0003.6,0016.41,0008.69,0007.12
2022-03-27 17:48:00,,0823.9,5.00,0.00,26.2,25.4,00.0,35.1,28.0,15.2,0003.7,0015.75,0008.68,0007.10
2022-03-27 17:49:00,,0823.8,5.00,0.00,26.2,25.4,00.0,35.1,28.0,15.1,0003.5,0015.55,0008.71,0007.10
2022-03-27 17:50:00,,0823.9,4.99,0.00,26.2,25.4,00.0,35.1,28.0,15.3,0003.8,0015.61,0008.70,0007.11
2022-03-27 17:51:00,,0823.9,5.00,0.00,26.2,25.4,00.0,35.1,28.1,15.4,0004.1,0017.76,0008.74,0007.13
2022-03-27 17:52:00,,0823.8,5.00,0.00,26.2,25.4,00.0,35.1,28.1,15.2,0003.9,0018.21,0008.81,0007.13
2022-03-27 17:53:00,,0823.8,5.00,0.00,26.3,25.4,00.0,35.1,28.1,15.2,0003.8,0018.84,0008.86,0007.11
2022-03-27 17:54:00,,0823.8,5.00,0.00,26.3,25.5,00.0,35.1,28.1,15.2,0003.7,0019.11,0008.89,0007.10
2022-03-27 17:55:00,,0823.8,5.01,0.00,26.3,25.5,00.0,35.2,28.1,15.4,0003.8,0019.42,0008.89,0007.11
2022-03-27 17:56:00,,0823.8,5.00,0.00,26.3,25.5,00.0,35.2,28.1,15.4,0003.9,0019.56,0008.86,0007.13
2022-03-27 17:57:00,,0823.7,5.00,0.00,26.3,25.5,00.0,35.2,28.1,15.2,0004.0,0018.96,0008.79,0007.15
2022-03-27 17:58:00,,0823.7,5.00,0.00,26.3,25.4,00.0,35.2,28.1,15.1,0003.7,0020.36,0008.78,0007.17
2022-03-27 17:59:00,,0823.7,5.00,0.00,26.3,25.4,00.0,35.2,28.1,15.2,0003.3,0020.40,0008.78,0007.18
